Tegucigalpa, Honduras

3:18 PM CST on September 27, 2016 (GMT -0600)
Toncontin International

Weather History for MHTG - August, 2014

Change the Weather History Date:

Tuesday, August 12, 2014

  Actual Average Record
Temperature  
Mean Temperature 76 °F -  
Max Temperature 86 °F 82 °F 88 °F (2016)
Min Temperature 66 °F 63 °F 50 °F (1996)
Cooling Degree Days 11    
Growing Degree Days 26 (Base 50)    
Moisture  
Dew Point 64 °F    
Average Humidity 75    
Maximum Humidity 100    
Minimum Humidity 31    
Precipitation  
Precipitation 0.91 in - - ()
Sea Level Pressure  
Sea Level Pressure 30.08 in    
Wind  
Wind Speed 3 mph ()    
Max Wind Speed 7 mph    
Max Gust Speed -    
Visibility 6.0 miles    
Events Rain    
Averages and records for this station are not official NWS values.
T = Trace of Precipitation, MM = Missing Value Source: Averaged Metar Reports

Daily Weather History Graph

Daily Weather History Graph

Search for Another Location

Airport or City:

Trip Planner

Search our weather history database for the weather conditions in past years. The results will help you decide how hot, cold, wet, or windy it might be!

Date:

Astronomy

Aug. 12, 2014 Rise Set
Actual Time 5:35 AM CST 6:12 PM CST
Civil Twilight 5:12 AM CST 6:34 PM CST
Nautical Twilight 4:46 AM CST 7:00 PM CST
Astronomical Twilight 4:20 AM CST 7:26 PM CST
Moon 7:55 PM CST (8/12) 7:22 AM CST (8/12)
Length of Visible Light 13h 21m
Length of Day
12h 37m
Waning Gibbous, 94% of the Moon is Illuminated
Aug 12
Waning Gibbous
Aug 17
Last Quarter
Aug 25
New
Sep 2
First Quarter
Sep 8
Full

Hourly Weather History & Observations

Time (CST) Temp. Heat Index Dew Point Humidity Pressure Visibility Wind Dir Wind Speed Gust Speed Precip Events Conditions
12:00 AM 66 °F - 66 °F 100% 30.06 in 5 mi SSW 4.6 mph - - Rain Light Rain
12:00 AM 66.2 °F - 66.2 °F 100% 30.15 in 5.0 mi SSW 4.6 mph - N/A Rain Light Rain
1:00 AM 66.2 °F - 66.2 °F 100% 30.12 in 6.2 mi Calm Calm - N/A   Scattered Clouds
2:00 AM 66.2 °F - 66.2 °F 100% 30.09 in 6.2 mi Calm Calm - N/A   Mostly Cloudy
3:00 AM 69 °F - 67 °F 89% 29.98 in 5 mi Calm Calm - -   Haze
3:00 AM 68.0 °F - 66.2 °F 94% 30.09 in 6.2 mi Calm Calm - N/A   Mostly Cloudy
4:00 AM 68.0 °F - 68.0 °F 100% 30.09 in 6.2 mi Calm Calm - N/A   Mostly Cloudy
5:00 AM 68.0 °F - 68.0 °F 100% 30.12 in 5.0 mi Calm Calm - N/A   Mostly Cloudy
6:00 AM 68.0 °F - 68.0 °F 100% 30.12 in 6.2 mi Calm Calm - N/A   Scattered Clouds
7:00 AM 68.0 °F - 68.0 °F 100% 30.12 in 5.0 mi NNE 4.6 mph - N/A   Mostly Cloudy
8:00 AM 71.6 °F - 69.8 °F 94% 30.12 in 4.3 mi North 4.6 mph - N/A   Mostly Cloudy
9:00 AM 73 °F - 69 °F 82% 30.02 in 6 mi North 4.6 mph - -   Mostly Cloudy
9:00 AM 73.4 °F - 68.0 °F 83% 30.15 in 6.2 mi North 4.6 mph - N/A   Mostly Cloudy
10:00 AM 77.0 °F - 69.8 °F 78% 30.15 in 6.2 mi North 5.8 mph - N/A   Mostly Cloudy
12:00 PM 82.4 °F 84.6 °F 66.2 °F 58% 30.12 in 6.2 mi Variable 2.3 mph - N/A   Mostly Cloudy
1:00 PM 84.2 °F 85.6 °F 64.4 °F 51% 30.09 in 6.2 mi ENE 6.9 mph - N/A   Mostly Cloudy
2:00 PM 86.0 °F 86.6 °F 62.6 °F 45% 30.06 in 6.2 mi East 3.5 mph - N/A   Mostly Cloudy
3:00 PM 85 °F - 59 °F 31% 29.84 in 8 mi NE 4.6 mph - -   Partly Cloudy
3:00 PM 86.0 °F 85.4 °F 59.0 °F 40% 30.04 in 6.2 mi NE 4.6 mph - N/A   Mostly Cloudy
4:00 PM 84.2 °F 83.0 °F 55.4 °F 37% 30.04 in 6.2 mi ENE 4.6 mph - N/A   Mostly Cloudy
5:00 PM 80.6 °F 80.8 °F 57.2 °F 45% 30.04 in 6.2 mi East 4.6 mph - N/A   Mostly Cloudy
6:00 PM 78.8 °F - 59.0 °F 51% 30.06 in 6.2 mi East 4.6 mph - N/A   Mostly Cloudy
7:00 PM 75.2 °F - 60.8 °F 61% 30.09 in 6.2 mi NE 4.6 mph - N/A   Mostly Cloudy
8:00 PM 73.4 °F - 60.8 °F 65% 30.09 in 6.2 mi NE 2.3 mph - N/A   Mostly Cloudy
9:00 PM 73 °F - 63 °F 62% 30.00 in 6 mi ESE 3.5 mph - -   Scattered Clouds
9:00 PM 73.4 °F - 62.6 °F 69% 30.12 in 6.2 mi ESE 3.5 mph - N/A   Mostly Cloudy
10:00 PM 68.0 °F - 62.6 °F 83% 30.15 in - Variable 2.3 mph - N/A   Clear
11:00 PM 66.2 °F - 62.6 °F 88% 30.15 in 6.2 mi Calm Calm - N/A   Mostly Cloudy